Volver al catálogo

SL-16 DEB

ActivoLEO
NORAD 22344·DEBRIS·🇷🇺 Russia

Lanzado Dec 25, 1992 desde Baikonur Cosmodrome

Loading…

Próximos Pases (próximas 24 horas)

TLE

ActualizadoSource: Space-Track

Época: Sep 14, 2026, 13:28 UTC

1 22344U 92093AH  26257.56159612  .00000728  00000-0  39703-3 0  9997
2 22344  71.0880 336.9649 0100675  33.8314 326.9176 14.12827220721870

Sigue SL-16 DEB en tiempo real con AllMySat

Download on the App Store